Tracking 35048 objects as of 19-Aug-2026
HD Live streaming from Space Station
objects crossing your sky now

AIGLONSAT-1

Track AIGLONSAT-1 now!
10-day predictions
AIGLONSAT-1 is classified as:


NORAD ID: 68437
Int'l Code: 2026-067X
Launch date: March 30, 2026
Source: United States (US)
Launch site: AIR FORCE WESTERN TEST RANGE (AFWTR)

Uplink (MHz):
Downlink (MHz): 436.655
Beacon (MHz): 436.655
Mode: 0.5k/1k_GFSK CW
Call sign:
Status: Unknown

Your satellite tracking list
Your tracking list is empty




NASA's NSSDC Master Catalog

Two Line Element Set (TLE):
1 68437U 26067X   26228.85943611  .00009530  00000-0  43143-3 0  9991
2 68437  97.4548 186.6504 0003162 136.5327 223.6158 15.21096884 21167
Source of the keplerian elements: AFSPC